User: anonymous   Login
Location: Unspecified
(0.0000°N, 0.0000°E)
Time: 19:24:29
(UTC+00:00)
Language:

CENTISPACE-1 S12 - Orbit

View from above orbital plane
View from above orbital plane
View from above satellite
View from above satellite

Ground track
Ground track

The orbit is defined by the following mean orbital elements,

1 62581U          26145.65371534 +.00000000 +00000-0 +77300-4 0 00008
2 62581  54.9781  10.1939 0017460  83.2710 277.0233 13.80626129    02
Epoch (UTC): 25 May 2026 15:41:21
Eccentricity: 0.0017460
inclination: 54.9781°
perigee height: 949 km
apogee height: 974 km
right ascension of ascending node: 10.1939°
argument of perigee: 83.2710°
revolutions per day: 13.80626129
mean anomaly at epoch: 277.0233°

The dashed part of the orbit path shows where the satellite is in the earth's shadow,  

DLR